Theta_e
324 323 322 321 321 321 322 321 320 320 320 320 321 322 322 322 322 321 321 322 323 322 323 323 322 322 323 324 324 324 324 326 327 328 328 328 328 328 328 328 329 329 330 331 330 330 330 330 331 331 331 331 330 330 331 331 330 330 330 330 330 330 330
322 320 319 319 319 319 319 319 318 318 318 317 318 317 317 317 317 317 317 318 319 319 319 320 319 320 321 321 321 321 321 323 323 324 325 325 326 326 326 327 328 329 330 330 330 331 331 331 331 330 330 331 331 331 330 330 330 330 330 329 330 330 330
319 318 317 317 316 316 316 316 316 315 315 314 314 314 314 313 314 314 313 314 315 315 316 317 317 317 318 318 319 319 319 320 320 321 321 322 323 323 324 325 326 328 328 329 330 330 330 331 331 330 330 330 330 331 331 330 330 330 329 329 329 329 329
316 316 315 314 314 314 313 313 313 312 312 311 310 311 311 311 311 311 311 312 312 313 313 314 315 315 315 315 316 316 317 317 317 318 319 319 320 320 321 323 324 324 326 327 329 329 329 329 330 330 330 329 330 330 331 330 329 329 329 328 329 329 329
313 313 312 311 311 311 311 310 310 310 309 308 308 308 308 308 308 308 308 309 309 309 309 310 310 311 311 312 312 313 313 314 314 315 315 316 316 317 318 320 321 321 323 325 326 327 327 328 328 329 329 329 329 330 330 330 329 329 328 328 329 329 328
311 310 309 309 309 308 308 308 308 308 307 307 307 307 307 306 305 304 304 304 304 304 305 305 306 307 308 308 308 309 309 309 310 310 310 311 311 313 315 316 318 319 321 322 323 324 325 326 327 328 328 329 329 329 330 330 330 329 329 329 329 329 328
308 308 307 307 306 307 306 306 306 306 306 306 305 305 306 304 302 302 302 302 302 302 303 303 304 304 305 305 305 305 306 306 306 306 306 307 307 309 310 311 313 315 317 319 321 322 323 324 326 327 328 329 330 330 329 330 330 330 330 330 329 329 329
307 306 306 305 305 305 305 305 305 305 305 304 304 304 303 302 300 300 300 301 301 301 301 302 302 303 304 304 303 303 304 304 304 304 305 305 305 305 306 307 309 310 313 315 317 319 320 321 322 324 326 328 329 329 329 330 330 330 330 330 330 330 330
306 305 305 305 304 304 304 303 304 303 303 303 303 301 300 299 299 299 299 299 299 299 300 300 301 302 302 302 301 301 302 302 303 303 304 304 305 305 305 305 306 307 309 311 312 315 316 317 319 321 323 325 327 329 329 331 330 329 329 330 330 330 329
305 305 305 304 304 303 303 303 303 302 302 302 301 300 299 298 298 298 298 298 298 298 298 299 299 300 301 300 300 300 300 301 302 303 303 304 304 304 305 305 305 306 307 308 309 310 312 314 316 317 319 321 324 327 329 330 330 329 329 330 329 328 328
305 304 304 304 303 303 303 302 302 302 301 301 300 299 298 298 297 297 296 296 296 297 297 297 298 298 299 299 299 300 300 300 301 302 302 303 303 304 304 304 305 305 306 307 307 308 309 311 313 314 316 317 320 324 326 328 330 330 329 329 328 327 327
304 304 303 303 303 302 302 302 301 300 300 299 299 298 298 298 298 297 296 296 296 296 296 296 297 297 297 298 299 299 299 299 300 301 301 302 302 303 304 304 304 305 306 306 306 307 308 309 311 313 314 316 318 320 322 324 327 329 329 329 329 327 327
304 303 303 302 302 301 301 300 300 299 299 298 297 297 297 298 297 297 297 296 296 296 296 296 296 296 297 297 298 298 298 298 299 300 300 301 301 302 303 303 304 304 305 305 306 307 308 309 311 312 312 313 314 315 317 319 322 325 328 329 329 327 326
303 302 302 301 301 300 299 298 298 297 297 297 297 297 297 297 297 297 297 296 296 296 296 296 296 296 297 297 298 298 298 298 299 299 299 300 301 301 302 302 303 303 303 304 305 306 307 308 309 309 309 309 310 310 311 314 316 319 322 325 328 328 327
301 300 300 299 299 298 297 296 296 296 296 296 296 296 296 296 296 296 296 296 296 296 296 296 296 296 296 297 297 297 297 298 298 298 299 299 300 300 301 301 302 302 302 302 303 304 305 306 306 306 306 307 307 308 308 310 312 314 316 319 322 326 328
300 299 298 298 297 297 296 295 294 295 295 296 295 296 295 295 295 296 296 296 296 296 296 296 296 296 296 296 297 297 297 298 298 298 298 299 299 299 300 300 300 300 300 301 302 303 304 304 304 304 304 305 305 305 306 306 307 309 311 313 316 320 325
299 298 298 297 296 295 295 295 295 295 295 295 295 296 296 295 296 296 296 296 296 296 296 296 296 296 296 296 297 297 297 297 298 298 298 298 298 299 299 299 300 299 299 300 301 302 302 302 302 302 302 303 303 303 303 303 304 305 308 310 312 315 319
298 298 298 297 295 295 295 295 295 295 295 295 295 296 296 296 296 296 296 296 296 296 296 296 296 296 295 296 296 297 297 297 297 297 298 298 298 298 298 299 299 299 299 299 300 300 300 300 300 300 300 300 301 301 301 301 302 303 304 307 309 311 314
299 298 297 296 295 294 295 295 295 295 295 295 295 295 295 295 295 295 295 295 296 296 296 296 295 295 295 295 296 296 297 297 297 297 297 298 298 298 298 298 298 298 299 299 299 299 299 299 299 299 299 299 299 299 299 300 301 302 303 304 306 309 311
298 298 297 296 295 295 294 295 295 295 295 295 295 295 295 295 295 295 295 295 295 296 296 295 295 295 295 295 296 296 296 296 297 297 297 297 297 297 297 297 298 298 298 299 299 298 298 298 298 298 298 298 298 298 298 299 300 301 302 303 304 307 310
298 297 296 296 295 295 295 294 295 295 295 294 295 295 295 295 295 295 295 295 295 295 295 295 294 294 294 295 295 296 296 296 296 296 297 297 297 297 297 297 297 297 298 298 298 297 297 297 297 297 297 297 297 297 297 298 299 300 301 302 304 305 308
297 297 296 296 295 295 295 295 295 294 294 295 295 295 294 294 294 295 295 295 295 295 295 294 294 293 294 294 295 296 296 296 296 296 296 296 296 296 296 296 296 297 297 297 297 297 297 296 296 296 296 296 296 296 296 297 298 299 300 301 303 304 306
298 297 296 296 295 295 295 295 295 295 295 295 294 294 294 294 294 294 295 295 295 295 294 294 293 293 293 293 294 295 296 296 296 296 296 296 296 296 296 296 296 296 296 296 296 296 296 295 294 294 294 295 295 295 295 296 297 298 299 301 302 303 305
298 297 296 296 296 296 296 295 295 295 295 294 294 294 294 294 294 294 294 295 295 295 294 293 293 293 293 293 293 294 295 295 296 296 296 296 296 296 295 295 295 295 295 295 296 295 295 294 293 294 295 295 295 294 295 295 296 297 298 299 300 302 303
298 297 296 296 296 296 296 295 295 295 294 294 294 294 294 294 294 294 294 295 295 295 294 293 293 293 293 293 293 294 295 296 296 296 296 295 295 295 295 295 295 295 295 295 295 294 294 293 293 293 294 295 296 295 295 295 296 296 297 298 299 300 301
298 297 296 296 296 296 295 295 295 294 294 294 294 294 294 294 294 294 294 294 294 295 294 293 293 293 293 293 293 294 295 295 295 295 295 295 295 294 294 294 294 294 294 294 294 294 293 293 292 293 293 294 295 296 296 295 295 296 296 297 298 299 300
298 297 295 295 296 296 295 295 294 294 294 293 293 294 294 294 293 293 294 294 294 294 293 293 293 292 292 293 293 294 295 295 295 295 295 295 294 294 294 294 294 294 294 294 294 293 292 292 292 293 293 294 295 295 295 296 296 296 297 297 298 298 299
297 296 295 296 296 295 295 294 294 294 294 294 294 294 294 293 293 293 293 294 294 294 293 292 292 292 292 292 293 294 295 295 295 295 295 294 294 294 293 293 294 293 293 294 293 292 292 292 292 293 293 294 294 294 295 295 296 296 296 296 297 297 298
297 296 296 296 296 295 295 294 294 294 294 294 294 294 293 293 293 293 293 293 294 294 293 292 292 292 292 292 293 294 294 294 294 294 294 294 294 294 293 293 293 293 293 293 293 292 291 291 292 293 293 293 293 294 294 294 294 294 294 294 295 295 296
296 296 296 296 296 295 295 294 294 294 294 294 294 294 294 293 293 293 293 293 293 294 293 292 291 292 292 292 293 294 294 294 294 294 294 294 293 293 293 293 293 293 293 293 292 292 291 292 292 293 292 293 293 293 293 293 293 293 293 293 294 295 296
296 296 296 296 295 295 295 295 294 294 294 294 294 294 294 294 293 292 292 293 293 293 293 292 291 291 292 292 293 293 294 294 294 293 293 293 293 293 293 293 293 293 292 292 292 292 291 292 292 292 292 292 292 292 292 292 292 292 293 294 295 296 297
296 296 296 295 295 295 295 294 294 294 294 294 294 294 294 294 293 292 292 292 293 293 293 293 291 291 292 292 293 293 293 293 293 293 293 293 293 293 293 293 293 292 292 292 292 292 292 292 292 292 292 292 291 291 291 291 291 292 293 294 295 297 299
296 296 296 295 295 295 295 294 294 294 294 294 295 294 294 294 294 293 292 292 292 293 293 292 291 292 292 293 292 293 293 293 293 293 293 293 293 293 293 293 293 292 292 292 292 292 292 292 292 292 292 291 291 291 291 291 292 292 293 293 295 297 299
296 296 296 295 295 295 295 295 295 294 295 295 295 294 294 294 294 293 292 292 292 292 292 292 292 292 292 293 292 292 293 293 293 293 294 293 293 293 293 293 293 292 291 291 292 292 292 292 292 292 292 291 291 291 291 291 292 292 292 293 295 297 299
296 296 296 296 296 296 295 295 295 295 295 295 295 295 294 294 294 294 294 293 293 292 292 292 292 292 292 292 292 293 293 292 292 293 294 293 293 293 293 293 292 291 291 291 292 292 292 292 292 292 292 291 291 291 291 291 291 291 292 292 293 295 297
296 296 296 296 296 296 296 296 295 295 295 295 296 296 295 295 295 295 294 294 293 293 292 292 292 292 292 292 292 292 292 292 292 292 293 294 293 293 293 292 292 291 291 291 292 292 292 292 292 292 292 292 292 291 291 291 291 291 291 292 292 294 295
297 297 296 296 296 296 296 296 296 296 295 296 296 296 296 296 296 295 295 294 294 293 293 293 292 292 292 292 292 292 292 293 292 292 293 293 293 292 292 291 291 291 291 291 292 292 292 292 292 292 292 292 292 291 291 291 291 291 291 292 292 293 293
Wind_Speed
10 9 8 9 9 9 8 8 10 11 11 11 10 9 9 9 9 9 10 10 9 10 10 10 11 12 11 11 12 14 15 14 13 14 14 14 13 13 14 13 14 16 15 13 12 11 10 9 12 15 16 18 19 18 17 19 22 22 24 25 23 25 31
8 8 9 10 10 10 10 10 10 11 11 11 11 11 11 10 10 10 11 12 11 11 12 12 13 14 13 13 13 14 14 14 14 15 15 16 16 17 18 17 16 15 15 16 14 12 12 10 10 11 13 16 17 18 19 19 21 24 25 27 26 24 25
9 9 10 11 11 12 12 12 12 12 13 12 11 12 12 11 11 12 13 14 13 13 14 14 15 15 15 14 13 13 14 15 15 15 15 16 17 19 19 18 19 17 15 14 11 11 11 10 10 12 15 16 14 17 20 19 20 23 25 26 28 27 24
12 11 12 13 14 14 14 14 14 13 13 12 11 11 13 12 13 15 15 15 15 14 14 14 14 15 15 15 15 14 15 15 16 16 16 16 17 18 18 17 19 20 18 15 13 13 11 10 10 11 15 17 17 19 19 19 21 22 24 25 27 29 26
14 14 15 15 15 15 15 14 14 13 12 12 12 12 13 14 15 17 17 16 16 15 15 14 13 13 14 14 15 15 15 15 15 15 16 15 15 15 16 16 18 20 21 20 19 17 14 15 14 11 15 18 16 18 19 16 19 21 23 23 24 28 29
16 16 16 16 15 14 14 13 14 13 13 13 13 13 14 15 17 19 19 20 20 20 19 18 17 16 15 15 15 14 14 13 12 13 13 14 13 14 15 16 16 17 19 20 21 19 18 19 16 12 17 18 14 16 18 14 14 18 20 22 23 26 29
17 17 17 17 16 14 13 13 13 12 13 13 13 13 13 15 18 21 22 22 22 22 21 20 20 19 19 19 17 15 13 12 12 12 12 12 13 13 14 15 16 16 17 18 19 19 19 20 18 15 16 16 16 17 17 13 13 14 15 17 20 23 25
17 17 17 16 16 14 14 14 14 13 13 13 13 14 15 18 21 23 23 23 24 24 23 23 22 21 21 20 19 16 13 11 12 13 12 12 13 14 14 14 15 16 16 16 17 18 19 19 21 21 18 14 13 13 13 12 13 15 16 15 16 19 20
18 17 16 16 15 15 16 16 15 14 13 13 13 16 19 22 23 24 24 25 25 26 26 25 24 24 23 21 19 18 16 13 13 14 13 13 14 15 15 15 15 15 15 16 17 17 18 19 20 23 23 17 12 10 10 9 9 13 17 17 16 19 22
19 17 16 16 16 16 17 17 17 16 14 13 14 17 21 23 24 25 26 27 28 28 28 28 27 26 24 21 19 18 17 15 14 14 14 14 15 15 15 16 16 16 16 16 17 17 18 19 19 21 23 23 18 12 9 8 7 11 16 16 18 20 24
17 17 16 17 17 17 17 17 17 16 16 15 16 18 20 22 24 26 27 28 29 29 29 29 29 27 25 21 18 16 16 16 16 15 14 14 15 15 16 17 17 17 17 18 18 19 18 18 19 20 22 25 24 18 13 10 9 13 16 15 18 21 22
16 16 17 18 18 18 18 17 17 17 18 18 19 19 20 21 22 24 26 28 29 30 30 29 29 28 25 21 17 16 17 17 16 15 15 15 15 15 17 18 18 18 19 20 20 20 20 19 19 20 22 24 25 23 21 15 9 12 16 15 17 20 21
17 17 18 19 20 20 20 19 19 19 20 20 21 21 20 20 21 22 23 25 27 29 29 30 28 26 23 20 17 16 17 18 17 16 16 16 16 16 17 18 18 19 20 21 21 20 20 20 20 20 23 24 24 24 25 19 11 13 18 18 20 23 23
18 20 21 22 22 22 23 23 22 22 22 22 22 21 20 21 21 21 22 23 24 25 27 29 27 23 21 19 17 16 18 18 18 17 17 17 17 17 17 18 19 19 20 20 20 21 20 21 21 22 23 24 25 24 25 22 15 14 19 21 21 24 25
20 22 24 24 24 25 26 26 24 24 23 21 22 21 21 22 22 21 21 22 22 23 25 27 27 23 21 19 17 17 18 18 18 18 18 18 18 18 18 19 19 20 20 20 20 20 20 21 22 22 22 23 24 24 23 22 19 16 18 21 22 23 24
21 24 26 26 26 26 27 26 25 25 23 22 22 22 22 23 22 21 20 20 21 21 23 25 26 23 21 20 18 17 17 17 18 18 18 18 18 18 19 19 20 21 21 21 21 20 20 22 22 22 22 22 22 23 23 21 20 18 18 22 23 23 23
23 25 25 26 27 27 26 25 25 24 23 23 23 21 21 21 21 20 20 19 20 20 22 24 25 24 23 21 19 18 18 18 18 18 18 19 19 19 19 19 20 21 21 21 21 21 21 23 23 22 23 22 21 23 24 23 22 20 19 21 23 23 24
23 24 25 26 26 26 26 24 24 23 23 23 22 21 20 20 20 20 20 20 20 20 22 24 24 23 23 22 20 18 18 18 18 18 18 19 19 19 19 19 19 20 21 21 22 22 23 24 24 24 23 23 22 22 24 24 23 22 21 21 23 25 27
22 23 24 24 25 26 25 24 23 23 22 22 22 21 21 21 21 21 20 20 20 20 21 24 24 23 23 21 19 19 19 18 18 18 19 20 19 19 19 19 19 19 20 22 22 22 23 25 25 25 24 24 24 24 25 25 23 23 23 23 24 25 25
22 22 23 23 24 25 25 24 23 22 22 22 23 22 22 21 21 21 20 21 20 20 21 24 25 24 23 22 19 18 18 19 19 18 19 20 19 19 19 19 19 19 20 22 22 22 24 26 26 25 25 25 26 26 26 25 24 24 23 23 23 23 22
21 22 22 23 23 24 24 24 23 23 23 24 23 22 22 21 21 20 20 20 20 20 22 26 28 27 24 22 20 19 19 19 19 19 19 19 20 20 20 20 19 19 21 21 21 22 24 26 27 26 26 26 27 28 27 26 25 23 22 22 22 22 22
21 21 22 23 23 23 23 22 22 22 22 22 21 22 22 22 21 21 20 20 21 20 22 27 31 30 27 24 20 18 18 17 17 18 18 19 20 21 20 20 19 20 21 21 22 24 26 26 26 27 28 28 27 27 27 27 25 23 22 21 21 22 21
19 20 22 22 22 22 22 21 21 21 21 20 21 21 22 22 22 21 20 20 20 20 22 27 30 31 31 27 21 17 17 18 17 17 18 20 21 21 21 21 20 20 21 21 23 25 25 27 29 31 32 31 29 27 27 27 25 24 23 21 21 21 20
18 20 21 21 21 21 20 21 20 20 20 20 21 21 22 22 21 21 20 19 20 20 22 28 30 31 32 30 26 21 19 20 20 19 21 22 22 22 22 21 21 21 21 23 25 25 24 28 33 35 35 34 33 30 27 26 26 25 25 23 23 22 21
18 19 20 20 20 20 20 20 20 19 21 22 21 21 22 21 21 21 20 19 20 19 23 28 31 32 32 31 28 22 18 20 20 20 21 22 21 21 21 22 22 21 22 25 26 25 28 31 32 33 34 34 34 31 28 27 27 27 27 26 26 25 24
17 18 19 20 20 19 19 19 20 20 21 23 23 22 22 21 21 21 20 20 19 19 24 29 31 33 33 32 29 21 17 18 19 19 21 21 20 21 21 22 23 23 25 26 26 29 33 33 29 29 30 31 31 31 30 30 29 29 29 29 29 29 28
16 17 18 18 18 18 18 19 20 21 22 24 24 23 22 22 22 21 21 20 19 20 25 29 31 33 33 32 29 23 19 19 19 19 21 20 20 20 21 22 24 25 26 26 28 33 36 34 30 28 27 28 30 31 32 31 29 28 28 28 29 32 32
15 16 17 17 17 18 19 19 20 21 21 22 23 22 21 21 22 22 21 20 19 20 24 28 31 33 34 32 27 22 20 20 20 20 20 20 20 19 20 22 24 26 27 27 31 37 39 36 32 29 28 29 30 31 32 32 30 29 30 30 31 33 35
16 16 16 16 16 16 18 19 20 20 20 21 22 21 21 21 21 21 21 21 19 19 23 28 30 32 34 31 25 21 21 20 21 21 20 21 21 20 21 23 25 27 28 29 34 40 41 37 31 29 30 31 31 32 33 33 33 33 34 35 36 38 39
17 16 15 15 15 16 17 18 19 20 20 20 21 21 20 19 19 20 21 21 21 19 21 27 30 30 32 30 24 22 23 22 22 22 22 22 22 22 23 24 26 29 30 32 37 42 42 37 31 29 31 31 33 35 35 36 37 38 38 38 39 40 42
17 16 14 15 15 15 15 16 17 19 19 19 20 21 20 17 17 20 21 21 23 22 21 25 29 30 30 30 25 22 23 24 23 23 23 23 23 23 24 25 27 31 34 37 40 42 41 37 32 30 30 32 34 35 37 40 42 42 41 40 38 37 38
17 15 15 15 14 14 14 15 16 18 19 19 19 20 20 18 17 18 21 22 24 24 23 24 28 29 29 30 27 23 23 24 24 23 23 23 23 24 25 26 28 34 39 40 42 43 41 38 34 31 31 33 34 36 40 43 42 41 42 41 38 36 35
16 15 14 14 13 13 13 14 15 16 17 17 17 19 20 20 18 18 21 22 23 24 24 24 27 29 29 29 28 25 23 23 24 23 23 23 24 24 26 26 28 35 40 41 42 42 42 41 37 31 30 35 36 39 43 43 39 39 40 38 37 35 34
14 13 12 12 11 11 12 12 13 14 15 16 17 19 20 21 19 17 19 21 21 23 23 24 26 28 28 29 30 28 25 24 24 23 22 23 23 24 26 27 28 35 40 40 42 42 41 43 39 32 33 38 39 42 44 40 39 40 38 35 35 33 31
12 11 10 10 9 9 10 10 11 12 14 15 16 17 20 20 18 16 16 17 19 21 23 24 25 27 28 29 30 30 28 28 27 23 21 22 24 24 25 26 28 35 39 39 41 41 40 42 40 36 39 44 44 45 43 40 42 43 39 37 36 32 30
10 9 9 8 8 7 7 8 9 10 12 13 13 13 16 18 16 15 15 15 16 19 21 23 24 26 27 27 29 29 29 29 31 27 22 22 23 23 24 26 30 34 37 38 40 41 40 41 41 41 45 46 46 46 44 43 47 45 38 37 37 33 32
9 8 7 6 6 5 5 5 6 8 10 11 10 10 12 14 14 14 14 14 15 17 19 21 23 25 26 27 28 29 29 29 31 30 25 22 23 24 25 28 31 33 35 37 39 40 40 42 43 44 46 46 46 46 45 47 49 45 38 39 40 36 34
Wind_Direction
92 91 86 86 83 79 75 68 63 59 53 52 49 49 48 43 43 43 39 33 24 21 15 10 10 7 4 359 353 347 338 340 344 335 330 329 327 324 319 309 304 297 283 281 285 287 293 292 290 292 293 294 290 278 267 261 257 252 249 248 246 242 239
88 87 84 81 76 69 64 57 52 48 44 44 43 41 39 34 32 33 30 23 19 16 7 1 2 0 358 354 348 344 342 342 343 340 336 334 332 326 323 319 316 310 296 288 288 288 284 283 292 299 303 302 294 283 275 268 260 256 255 252 248 246 241
90 85 77 68 63 58 53 47 42 41 39 37 37 35 32 31 31 31 29 24 21 15 6 358 354 352 350 348 346 343 342 337 334 335 334 332 329 324 322 319 317 317 311 303 303 304 295 287 291 295 302 304 298 293 286 277 267 259 258 254 247 247 246
84 78 69 60 55 51 49 46 43 41 38 34 33 31 29 30 31 30 27 23 19 14 6 357 348 343 340 340 339 334 330 329 328 327 327 326 324 321 321 317 312 312 312 310 309 309 306 297 296 295 299 302 298 294 293 286 277 266 262 257 247 246 246
77 72 67 60 53 50 47 46 44 42 38 35 33 31 29 32 33 31 29 28 28 27 23 17 8 358 350 345 343 337 332 327 324 324 324 325 324 321 320 315 309 306 305 306 309 310 306 299 299 296 297 302 297 293 296 291 280 271 263 257 249 246 245
74 71 67 62 57 54 49 46 45 43 40 37 35 35 32 33 37 38 40 41 40 39 36 34 29 22 18 14 7 358 350 344 338 334 330 327 327 322 318 314 310 308 304 305 307 307 306 302 297 293 299 302 297 294 298 290 276 274 265 254 249 245 244
74 71 69 67 64 59 54 52 50 46 44 40 37 38 35 37 43 45 46 45 42 39 36 34 31 28 26 25 21 12 5 1 356 351 342 337 334 329 325 320 313 310 306 305 306 306 308 309 303 300 303 303 299 297 297 284 268 269 264 254 248 243 241
77 74 72 70 67 64 60 58 55 51 50 47 43 43 44 46 49 48 47 45 42 39 36 32 30 28 26 26 22 16 11 5 2 360 355 349 345 340 337 332 323 316 311 308 308 307 309 311 310 308 306 303 300 299 298 285 268 260 257 252 245 238 234
80 77 75 72 68 67 65 63 61 58 56 53 50 51 52 51 51 49 47 45 42 39 36 34 31 30 28 25 21 17 12 6 2 360 359 354 349 346 344 341 334 327 323 319 314 311 309 309 312 313 312 308 301 297 299 294 278 266 259 248 243 246 243
79 77 76 74 71 71 69 67 64 60 57 56 53 53 53 51 50 49 46 44 43 40 37 35 33 31 29 25 21 17 10 3 359 358 356 354 350 348 346 346 342 336 333 331 325 320 316 312 312 316 317 315 309 299 292 287 283 283 274 248 238 253 257
79 77 76 75 74 72 69 67 64 61 59 58 56 53 52 51 49 48 46 44 42 40 38 37 35 33 30 25 20 15 9 2 359 358 354 351 349 347 345 345 344 341 339 337 333 329 325 320 318 319 321 321 317 309 299 289 276 278 280 262 245 251 260
79 78 77 76 74 72 70 68 67 65 62 60 57 55 52 50 47 45 45 43 42 40 38 37 36 33 30 25 18 12 8 4 0 359 357 354 350 347 345 344 343 341 340 338 337 334 331 328 325 324 326 326 323 320 317 309 288 274 273 266 256 252 258
81 79 77 77 75 73 72 72 70 67 64 60 57 56 53 49 47 44 42 41 39 37 35 34 34 32 28 24 18 11 7 5 3 359 357 355 352 349 346 344 343 342 340 339 338 337 336 334 332 330 330 330 328 330 330 324 313 301 291 278 266 260 263
82 81 80 79 78 76 75 74 71 68 65 61 57 54 52 50 48 45 41 39 36 34 32 31 30 28 24 20 17 12 7 5 4 0 357 355 353 350 347 345 344 343 342 340 339 339 339 339 338 335 334 333 330 331 334 329 321 316 313 303 283 269 265
84 84 83 81 79 77 75 73 70 67 63 60 57 54 52 52 50 45 41 38 35 33 30 29 29 26 23 20 17 13 9 7 4 1 358 355 352 350 348 346 345 345 344 343 341 341 341 341 340 337 335 335 331 330 332 330 323 317 317 315 306 290 273
86 85 83 81 79 77 74 71 69 66 63 60 59 56 53 52 49 44 40 35 32 30 28 27 26 25 22 18 15 11 9 7 4 2 358 354 352 350 349 347 345 345 345 344 343 343 342 341 340 337 335 334 331 328 328 328 325 318 312 311 312 307 290
86 84 81 80 79 77 74 71 68 65 63 61 58 55 51 48 45 41 37 33 29 27 25 23 22 21 19 15 11 7 6 6 4 2 357 354 353 351 349 348 346 345 345 344 343 343 342 341 339 336 334 333 331 328 327 326 322 317 310 306 306 307 302
85 83 82 80 78 76 73 70 67 64 62 59 56 52 48 45 42 38 35 31 28 26 24 21 19 18 15 12 9 6 4 3 2 359 356 354 353 352 351 348 345 346 346 344 343 342 341 340 339 335 332 331 329 326 324 323 320 315 308 302 301 303 304
85 84 83 80 78 75 71 69 66 63 60 57 55 51 47 45 41 37 35 31 28 27 24 21 19 16 11 9 8 6 4 2 359 357 356 354 352 351 352 350 347 347 347 344 342 340 340 339 337 334 332 330 328 326 322 319 317 315 309 301 299 300 300
87 86 83 81 78 73 70 68 66 63 60 58 55 50 47 44 40 36 34 30 28 29 26 22 20 16 11 8 7 5 4 2 359 358 357 355 353 352 352 351 350 349 348 346 343 340 339 338 335 332 330 329 327 324 321 317 315 313 308 303 300 298 297
90 87 85 82 77 72 69 68 66 64 61 57 53 48 44 41 38 35 33 30 30 30 27 23 21 16 11 9 8 7 4 1 359 358 356 356 355 354 352 350 348 347 346 344 341 339 338 336 333 329 327 326 324 321 318 315 312 309 305 302 299 297 297
91 88 85 80 75 72 69 67 66 62 59 55 50 47 43 39 36 33 32 31 31 31 28 24 22 20 15 11 8 5 2 360 359 357 355 356 357 355 352 348 344 342 341 339 338 336 334 332 331 326 322 320 318 316 313 311 308 306 303 299 296 295 295
91 87 84 78 74 71 68 67 65 60 56 53 49 45 41 38 37 34 32 31 31 31 28 23 23 23 20 16 10 3 360 0 360 359 359 358 356 354 351 348 344 341 340 339 337 334 330 329 328 324 321 318 313 308 306 304 302 301 299 296 294 294 292
90 85 82 78 74 71 67 65 62 59 55 52 48 45 41 38 36 34 33 31 31 31 26 23 23 23 21 19 15 8 1 360 360 2 2 360 356 354 351 349 347 344 343 341 338 334 331 328 327 325 324 322 316 309 301 295 295 296 295 292 290 289 286
88 84 82 78 74 70 67 64 61 58 56 53 49 45 42 39 36 35 34 32 31 29 24 23 23 22 20 19 17 12 2 359 1 2 1 359 356 354 352 350 349 346 344 343 341 338 334 329 325 324 325 324 321 314 303 294 289 288 288 288 287 286 282
88 86 84 80 75 71 67 65 64 61 59 55 51 47 43 41 38 36 34 32 31 28 25 24 23 22 20 20 22 19 6 2 5 4 1 359 356 356 355 352 350 347 345 344 344 342 338 333 328 324 322 321 318 314 308 301 294 288 285 282 281 280 279
90 90 89 83 77 73 70 69 67 65 61 56 52 47 44 41 40 38 35 33 31 28 27 25 24 23 20 20 23 21 8 6 8 5 3 1 358 358 357 353 351 347 345 345 345 343 341 336 331 326 323 319 316 313 311 308 303 298 292 283 278 278 278
97 96 94 88 81 78 75 73 71 67 62 57 52 47 44 42 42 39 37 35 31 28 28 27 24 22 19 18 20 18 9 7 8 6 5 2 0 360 358 356 353 349 347 345 343 344 344 340 333 329 325 322 319 315 312 310 307 304 299 290 282 279 277
104 103 99 93 86 82 79 76 73 68 63 58 53 49 45 43 42 40 38 35 31 27 28 28 25 22 19 19 19 16 12 9 7 6 5 3 1 360 358 357 355 352 349 345 344 347 348 344 337 331 329 326 323 319 314 313 311 307 301 294 287 282 279
110 108 103 96 91 86 82 77 72 67 62 57 52 49 45 42 41 41 39 36 33 29 28 28 27 23 20 21 20 16 14 12 8 6 6 4 2 0 358 357 356 354 350 346 347 350 351 348 340 334 332 329 327 324 320 319 318 313 308 303 297 292 287
115 112 106 101 95 89 83 77 71 66 62 57 52 49 46 42 41 42 40 39 37 34 29 27 27 24 22 23 23 19 15 13 10 9 6 3 2 0 357 357 356 355 352 350 351 353 353 351 344 337 335 332 329 327 326 325 323 319 317 313 306 301 296
118 114 109 104 98 91 84 77 70 65 61 57 52 48 46 42 40 41 42 40 38 35 30 27 26 25 24 26 26 22 18 16 14 11 7 3 2 0 358 357 356 355 354 354 354 355 355 353 348 340 338 336 331 328 328 327 324 322 321 318 313 309 304
121 117 113 106 99 91 83 76 69 63 58 55 50 46 45 42 40 40 41 39 36 33 31 28 27 26 26 28 29 26 21 17 14 10 7 6 4 1 0 359 355 355 356 356 355 355 355 355 352 345 343 340 333 331 331 329 326 327 324 319 316 315 312
125 121 115 108 99 90 82 74 67 62 56 52 49 45 42 41 38 36 37 37 35 33 31 29 28 28 28 28 29 26 21 16 13 9 7 9 8 3 2 359 353 354 357 357 356 356 356 357 355 350 347 345 340 339 339 334 332 334 331 327 324 320 318
130 124 118 110 99 87 80 71 64 59 54 49 46 43 39 37 35 32 31 31 30 30 31 29 26 27 27 27 26 25 22 19 17 13 9 9 9 5 1 356 352 356 359 358 358 358 358 358 358 354 352 350 349 350 348 343 343 342 336 333 333 328 327
135 127 119 111 101 90 80 68 58 53 49 45 41 37 34 32 29 26 25 25 24 25 27 26 24 24 24 24 23 23 23 22 21 19 13 8 5 1 356 354 355 359 1 1 0 0 0 0 359 357 356 355 355 356 352 350 352 348 338 337 340 337 336
144 135 124 115 107 96 79 65 52 43 40 37 32 30 28 25 22 21 20 19 18 19 22 23 22 21 21 22 21 21 21 22 23 23 18 10 4 360 357 358 0 2 2 2 3 3 3 3 2 360 359 359 359 357 356 356 355 349 343 345 346 343 341